timestamp,surface_pressure_avg,surface_temp_avg,battery_voltage,lat,long
2018-04-29 00:00:00+00:00,334.8629,3.75,13.05,47.84626,-54.09684
2018-04-29 00:10:00+00:00,327.6796,3.79,12.97,47.84626,-54.09684
2018-04-29 00:20:00+00:00,326.2147,3.8,13.05,47.84626,-54.09684
2018-04-29 00:30:00+00:00,320.4429,3.7,13.05,47.84626,-54.09684
2018-04-29 00:40:00+00:00,312.358,3.77,13.05,47.84626,-54.09684
2018-04-29 00:50:00+00:00,304.5146,3.97,13.05,47.84626,-54.09684
2018-04-29 01:00:00+00:00,300.243,4.1,12.97,47.84626,-54.09684
2018-04-29 01:10:00+00:00,295.4547,4.1,12.97,47.84626,-54.09684
2018-04-29 01:20:00+00:00,286.4647,4.3,12.97,47.84626,-54.09684
2018-04-29 01:30:00+00:00,277.2363,4.3,12.97,47.84626,-54.09684
2018-04-29 01:40:00+00:00,267.3864,4.56,13.05,47.84626,-54.09684
2018-04-29 01:50:00+00:00,260.2014,4.4,13.05,47.84626,-54.09684
2018-04-29 02:00:00+00:00,251.5514,4.51,12.97,47.84626,-54.09684
2018-04-29 02:10:00+00:00,240.2615,4.82,12.89,47.84626,-54.09684
2018-04-29 02:20:00+00:00,229.5514,4.92,12.97,47.84626,-54.09684
2018-04-29 02:30:00+00:00,219.6964,5.08,12.97,47.84626,-54.09684
2018-04-29 02:40:00+00:00,209.0131,5.38,12.97,47.84626,-54.09684
2018-04-29 02:50:00+00:00,202.2481,5.37,13.05,47.84626,-54.09684
2018-04-29 03:00:00+00:00,196.0481,5.68,12.97,47.84626,-54.09684
2018-04-29 03:10:00+00:00,190.7764,5.88,12.89,47.84626,-54.09684
2018-04-29 03:20:00+00:00,187.7898,5.94,12.97,47.84626,-54.09684
2018-04-29 03:30:00+00:00,183.9932,6.01,12.97,47.84626,-54.09684
2018-04-29 03:40:00+00:00,180.3715,6.32,12.97,47.84626,-54.09684
2018-04-29 03:50:00+00:00,176.8448,6.4,12.97,47.84626,-54.09684
2018-04-29 04:00:00+00:00,175.6982,6.4,12.97,47.84626,-54.09684
2018-04-29 04:10:00+00:00,172.6449,6.49,12.89,47.84626,-54.09684
2018-04-29 04:20:00+00:00,164.9015,6.4,12.97,47.84626,-54.09684
2018-04-29 04:30:00+00:00,165.8548,6.4,12.97,47.84626,-54.09684
2018-04-29 04:40:00+00:00,172.3715,6.4,12.97,47.84626,-54.09684
2018-04-29 04:50:00+00:00,167.8915,6.4,12.97,47.84626,-54.09684
2018-04-29 05:00:00+00:00,164.6315,6.49,12.97,47.84626,-54.09684
2018-04-29 05:10:00+00:00,168.7331,6.57,12.89,47.84626,-54.09684
2018-04-29 05:20:00+00:00,167.0632,6.63,12.97,47.84626,-54.09684
2018-04-29 05:30:00+00:00,167.9898,6.6,12.97,47.84626,-54.09684
2018-04-29 05:40:00+00:00,175.9298,6.36,12.97,47.84626,-54.09684
2018-04-29 05:50:00+00:00,179.1949,6.3,12.97,47.84626,-54.09684
2018-04-29 06:00:00+00:00,174.8015,6.3,12.97,47.84626,-54.09684
2018-04-29 06:10:00+00:00,175.9965,6.2,12.89,47.84626,-54.09684
2018-04-29 06:20:00+00:00,184.4598,6.2,12.97,47.84626,-54.09684
2018-04-29 06:30:00+00:00,188.5748,6.2,12.97,47.84626,-54.09684
2018-04-29 06:40:00+00:00,190.4565,6.1,12.97,47.84626,-54.09684
2018-04-29 06:50:00+00:00,196.3565,6.08,12.97,47.84626,-54.09684
2018-04-29 07:00:00+00:00,198.4182,6.11,12.97,47.84626,-54.09684
2018-04-29 07:10:00+00:00,195.1598,6.19,12.89,47.84626,-54.09684
2018-04-29 07:20:00+00:00,200.1647,6.2,12.97,47.84626,-54.09684
2018-04-29 07:30:00+00:00,212.9847,6.2,12.97,47.84626,-54.09684
2018-04-29 07:40:00+00:00,214.5998,6.1,12.97,47.84626,-54.09684
2018-04-29 07:50:00+00:00,215.5131,6.1,12.97,47.84626,-54.09684
2018-04-29 08:00:00+00:00,226.5631,6.08,12.97,47.84626,-54.09684
2018-04-29 08:10:00+00:00,233.6365,5.9,12.89,47.84626,-54.09684
2018-04-29 08:20:00+00:00,236.0148,5.89,12.97,47.84626,-54.09684
2018-04-29 08:30:00+00:00,239.4314,5.75,12.97,47.84626,-54.09684
2018-04-29 08:40:00+00:00,247.2381,5.76,12.97,47.84626,-54.09684
2018-04-29 08:50:00+00:00,254.0397,5.8,12.97,47.84626,-54.09684
2018-04-29 09:00:00+00:00,261.9947,5.79,12.97,47.84626,-54.09684
2018-04-29 09:10:00+00:00,269.2548,5.7,12.89,47.84626,-54.09684
2018-04-29 09:20:00+00:00,278.8197,5.58,12.97,47.84626,-54.09684
2018-04-29 09:30:00+00:00,289.5731,5.09,12.97,47.84626,-54.09684
2018-04-29 09:40:00+00:00,300.5264,5.07,12.97,47.84626,-54.09684
2018-04-29 09:50:00+00:00,309.433,4.3,12.97,47.84626,-54.09684
2018-04-29 10:00:00+00:00,317.213,4.1,12.97,47.84626,-54.09684
2018-04-29 10:10:00+00:00,327.3146,4.1,12.89,47.84626,-54.09684
2018-04-29 10:20:00+00:00,330.2397,4.1,12.97,47.84626,-54.09684
2018-04-29 10:30:00+00:00,330.0162,4.1,13.05,47.84626,-54.09684
2018-04-29 10:40:00+00:00,337.5313,4.03,13.05,47.84626,-54.09684
2018-04-29 10:50:00+00:00,346.1363,4.17,13.05,47.84626,-54.09684
2018-04-29 11:00:00+00:00,343.3879,4.18,13.05,47.84626,-54.09684
2018-04-29 11:10:00+00:00,340.9496,4.1,13.05,47.84626,-54.09684
2018-04-29 11:20:00+00:00,345.4863,4.1,13.13,47.84626,-54.09684
2018-04-29 11:30:00+00:00,347.123,4.09,13.21,47.84626,-54.09684
2018-04-29 11:40:00+00:00,344.4979,4.0,13.21,47.84626,-54.09684
2018-04-29 11:50:00+00:00,343.3646,4.0,13.29,47.84626,-54.09684
2018-04-29 12:00:00+00:00,343.9913,4.0,13.21,47.84626,-54.09684
2018-04-29 12:10:00+00:00,340.7278,4.0,13.13,47.84626,-54.09684
2018-04-29 12:20:00+00:00,335.9813,4.0,13.13,47.84626,-54.09684
2018-04-29 12:30:00+00:00,325.7497,4.0,13.21,47.84626,-54.09684
2018-04-29 12:40:00+00:00,319.9214,4.02,13.21,47.84626,-54.09684
2018-04-29 12:50:00+00:00,321.558,4.15,13.29,47.84626,-54.09684
2018-04-29 13:00:00+00:00,319.3563,4.19,13.21,47.84626,-54.09684
2018-04-29 13:10:00+00:00,312.408,4.19,13.13,47.84626,-54.09684
2018-04-29 13:20:00+00:00,302.1512,4.37,13.21,47.84626,-54.09684
2018-04-29 13:30:00+00:00,301.188,4.47,13.21,47.84626,-54.09684
2018-04-29 13:40:00+00:00,296.068,4.57,13.21,47.84626,-54.09684
2018-04-29 13:50:00+00:00,284.7197,4.88,13.29,47.84626,-54.09684
2018-04-29 14:00:00+00:00,275.6097,4.4,13.29,47.84626,-54.09684
2018-04-29 14:10:00+00:00,270.8097,5.01,13.21,47.84626,-54.09684
2018-04-29 14:20:00+00:00,258.9431,5.89,13.29,47.84626,-54.09684
2018-04-29 14:30:00+00:00,244.4431,5.75,13.29,47.84626,-54.09684
2018-04-29 14:40:00+00:00,237.0564,5.8,13.37,47.84626,-54.09684
2018-04-29 14:50:00+00:00,228.7298,6.15,13.44,47.84626,-54.09684
2018-04-29 15:00:00+00:00,211.3464,6.3,13.44,47.84626,-54.09684
2018-04-29 15:10:00+00:00,204.4948,6.2,13.37,47.84626,-54.09684
2018-04-29 15:20:00+00:00,202.5898,6.1,13.53,47.84626,-54.09684
2018-04-29 15:30:00+00:00,189.6531,6.19,13.53,47.84626,-54.09684
2018-04-29 15:40:00+00:00,179.5865,6.2,13.6,47.84626,-54.09684
2018-04-29 15:50:00+00:00,179.0915,6.2,13.6,47.84626,-54.09684
2018-04-29 16:00:00+00:00,169.9148,6.22,13.53,47.84626,-54.09684
2018-04-29 16:10:00+00:00,164.5132,6.25,13.37,47.84626,-54.09684
2018-04-29 16:20:00+00:00,168.7848,6.1,13.37,47.84626,-54.09684
2018-04-29 16:30:00+00:00,165.7248,6.33,13.37,47.84626,-54.09684
2018-04-29 16:40:00+00:00,158.8831,6.4,13.44,47.84626,-54.09684
2018-04-29 16:50:00+00:00,164.8381,6.54,13.44,47.84626,-54.09684
2018-04-29 17:00:00+00:00,174.0931,6.81,13.37,47.84626,-54.09684
2018-04-29 17:10:00+00:00,164.8148,6.96,13.29,47.84626,-54.09684
2018-04-29 17:20:00+00:00,159.0398,6.9,13.29,47.84626,-54.09684
2018-04-29 17:30:00+00:00,168.4548,6.9,13.29,47.84626,-54.09684
2018-04-29 17:40:00+00:00,173.5831,7.0,13.37,47.84626,-54.09684
2018-04-29 17:50:00+00:00,171.9015,6.9,13.37,47.84626,-54.09684
2018-04-29 18:00:00+00:00,175.6482,6.53,13.29,47.84626,-54.09684
2018-04-29 18:10:00+00:00,186.2165,6.8,13.21,47.84626,-54.09684
2018-04-29 18:20:00+00:00,190.3331,6.6,13.21,47.84626,-54.09684
2018-04-29 18:30:00+00:00,190.4531,6.64,13.21,47.84626,-54.09684
2018-04-29 18:40:00+00:00,200.0248,6.75,13.29,47.84626,-54.09684
2018-04-29 18:50:00+00:00,208.5465,6.1,13.29,47.84626,-54.09684
2018-04-29 19:00:00+00:00,207.9815,5.98,13.21,47.84626,-54.09684
2018-04-29 19:10:00+00:00,209.5531,6.1,13.13,47.84626,-54.09684
2018-04-29 19:20:00+00:00,219.3631,6.1,13.21,47.84626,-54.09684
2018-04-29 19:30:00+00:00,226.2914,6.0,13.21,47.84626,-54.09684
2018-04-29 19:40:00+00:00,229.1781,6.0,13.21,47.84626,-54.09684
2018-04-29 19:50:00+00:00,234.8564,6.09,13.21,47.84626,-54.09684
2018-04-29 20:00:00+00:00,242.2264,6.0,13.13,47.84626,-54.09684
2018-04-29 20:10:00+00:00,243.9931,6.0,13.05,47.84626,-54.09684
2018-04-29 20:20:00+00:00,250.9848,5.87,13.05,47.84626,-54.09684
2018-04-29 20:30:00+00:00,262.3447,5.9,13.05,47.84626,-54.09684
2018-04-29 20:40:00+00:00,271.6731,5.88,13.05,47.84626,-54.09684
2018-04-29 20:50:00+00:00,275.3547,5.89,13.05,47.84626,-54.09684
2018-04-29 21:00:00+00:00,283.5331,5.62,12.97,47.84626,-54.09684
2018-04-29 21:10:00+00:00,294.523,5.4,12.97,47.84626,-54.09684
2018-04-29 21:20:00+00:00,303.5097,4.5,12.97,47.84626,-54.09684
2018-04-29 21:30:00+00:00,307.3563,4.54,12.97,47.84626,-54.09684
2018-04-29 21:40:00+00:00,319.7063,4.48,13.05,47.84626,-54.09684
2018-04-29 21:50:00+00:00,333.3729,4.23,13.05,47.84626,-54.09684
2018-04-29 22:00:00+00:00,339.5013,4.4,12.97,47.84626,-54.09684
2018-04-29 22:10:00+00:00,339.043,4.3,12.89,47.84626,-54.09684
2018-04-29 22:20:00+00:00,352.0945,4.1,12.97,47.84626,-54.09684
2018-04-29 22:30:00+00:00,366.9697,3.91,12.97,47.84626,-54.09684
2018-04-29 22:40:00+00:00,370.9846,3.89,12.97,47.84626,-54.09684
2018-04-29 22:50:00+00:00,369.9846,3.9,12.97,47.84626,-54.09684
2018-04-29 23:00:00+00:00,380.9313,3.86,12.97,47.84626,-54.09684
2018-04-29 23:10:00+00:00,389.9713,3.89,12.89,47.84626,-54.09684
2018-04-29 23:20:00+00:00,391.4079,4.0,12.97,47.84626,-54.09684
2018-04-29 23:30:00+00:00,387.8729,3.9,12.97,47.84626,-54.09684
2018-04-29 23:40:00+00:00,391.1945,3.8,12.97,47.84626,-54.09684
2018-04-29 23:50:00+00:00,393.6362,3.8,12.97,47.84626,-54.09684
